Regional Weather Roundup
Issued by NWS

Home | Current Version | Previous Version | Text Only | Print | Product List | Glossary On
Versions: 1 2 3 4 5 6 7 8 9 10 11 12 13 14 15 16 17 18 19 20 21 22 23 24 25 26 27 28 29 30 31 32 33 34 35 36 37 38 39 40 41 42 43 44 45 46 47 48 49 50
000
ASUS43 KMKX 051621
RWRWI

WISCONSIN REGIONAL WEATHER ROUNDUP
NATIONAL WEATHER SERVICE MILWAUKEE/SULLIVAN WI
1000 AM CST FRI FEB 05 2016

NOTE: "FAIR" INDICATES FEW OR NO CLOUDS BELOW 12,000 FEET WITH NO
SIGNIFICANT WEATHER AND/OR OBSTRUCTIONS TO VISIBILITY.

WIZ001-002-006>008-014>016-023>028-051700-
NORTHWEST WISCONSIN

CITY           SKY/WX    TMP DP  RH WIND       PRES   REMARKS
SUPERIOR ARPT  CLOUDY    12   8  83 CALM      30.32S
ASHLAND        CLOUDY    13  10  88 SW3       30.32S
HAYWARD        CLOUDY    10   7  87 SW5       30.30R WCI   2
SIREN          MOSUNNY   10   8  89 CALM      30.32S
CUMBERLAND     CLOUDY     3   0  85 CALM      30.30S
RICE LAKE      CLOUDY     4   0  85 CALM      30.34S
CHETEK         CLOUDY     6   2  87 CALM      30.33F
LADYSMITH      MOSUNNY    7   4  87 CALM      30.33R FOG
EAU CLAIRE     CLOUDY    11  10  96 CALM      30.35R
MENOMONIE      CLOUDY    15  10  80 E3        30.36R
NEW RICHMOND   CLOUDY    10   6  87 CALM      30.33S
OSCEOLA        CLOUDY    11  10  95 CALM      30.36S
$$

WIZ003>005-009-010-017-018-051700-
NORTH CENTRAL WISCONSIN

CITY           SKY/WX    TMP DP  RH WIND       PRES   REMARKS
MANITOWISH WTR CLOUDY    12  11  95 CALM      30.25S
ARBOR VITAE    CLOUDY    14  11  87 CALM      30.25S
WOODRUFF       CLOUDY    14  11  87 CALM      30.25S
RHINELANDER    SUNNY     16  11  80 N5        30.26S WCI   9
EAGLE RIVER    CLOUDY    13   9  85 CALM      30.25S
LAND O LAKES   MOSUNNY   16  11  82 CALM      30.25S
PHILLIPS       CLOUDY    10   8  91 CALM      30.28R
TOMAHAWK       SUNNY     15  10  82 CALM      30.28S
MEDFORD        CLOUDY   N/A N/A N/A CALM      30.28R HAZE
MERRILL        CLOUDY    14  12  91 CALM      30.30S
$$

WIZ029-030-035-036-043>047-051700-
CENTRAL WISCONSIN

CITY           SKY/WX    TMP DP  RH WIND       PRES   REMARKS
WAUSAU         CLOUDY    17  11  77 W6        30.29S WCI   9
MOSINEE        SUNNY     18  12  79 CALM      30.31S
MARSHFIELD     CLOUDY    12   8  84 W3        30.31R FOG
STEVENS POINT  CLOUDY    18  12  79 W5        30.32S WCI  11
WAUPACA        CLOUDY    22  15  73 CALM      30.35S
WAUTOMA        CLOUDY    20  18  92 CALM      30.35S
WISC RAPIDS    CLOUDY    17  12  80 W5        30.35R WCI  10
CAMP DOUGLAS   PTSUNNY   16  16 100 CALM      30.35R
$$

WIZ011>013-019>022-031-037>040-048>050-051700-
NORTHEAST WISCONSIN

CITY           SKY/WX    TMP DP  RH WIND       PRES   REMARKS
ANTIGO         SUNNY      7   5  91 CALM      30.28R FOG
SHAWANO        MOSUNNY   20  13  74 CALM      30.34S
OCONTO         SUNNY     21  13  72 NW6       30.34S WCI  13
STURGEON BAY   SUNNY     19  12  73 NW8       30.35R WCI   9
GREEN BAY      SUNNY     19  12  74 W6        30.35R WCI  11
MANITOWOC      PTSUNNY   25  17  72 NW9       30.35S WCI  15
APPLETON       MOSUNNY   18  12  79 VRB6      30.32R WCI   9
CLINTONVILLE   CLOUDY    21  14  73 CALM      30.34R
OSHKOSH        CLOUDY    19  13  77 W5        30.34S WCI  12
$$

WIZ032>034-041-042-053>061-051700-
SOUTHWEST WISCONSIN

CITY           SKY/WX    TMP DP  RH WIND       PRES   REMARKS
LA CROSSE      MOSUNNY   11   9  92 S6        30.39R WCI   1
SPARTA         CLOUDY    11   8  91 CALM      30.38R FOG
VIROQUA        MOSUNNY   15  14  95 SW6       30.34R WCI   6
BOSCOBEL       MOSUNNY   18  15  88 SW3       30.40S FOG
PRAIRIE DU CHI CLOUDY    16   9  74 CALM      30.40S
PLATTEVILLE    CLOUDY    21  18  87 CALM      30.37R
$$

WIZ056-057-062-063-064-067-068-051700-
SOUTH CENTRAL WISCONSIN

CITY           SKY/WX    TMP DP  RH WIND       PRES   REMARKS
REEDSBURG      CLOUDY    19  15  84 CALM      30.36R
BARABOO/DELLS  CLOUDY    20  15  82 CALM      30.35S
LONE ROCK      MOSUNNY   16  11  80 CALM      30.39R HAZE
MINERAL POINT  CLOUDY    21  19  93 CALM      30.35F FOG
MADISON        PTSUNNY   23  16  74 NW6       30.36S WCI  16
MIDDLETON      MOSUNNY   25  18  74 W5        30.37R WCI  19
WATERTOWN      CLOUDY    24  17  75 NW8       30.35S WCI  15
MONROE         CLOUDY    27  19  74 CALM      30.36R
JANESVILLE     PTSUNNY   27  19  74 NW7       30.37R WCI  19
$$

WIZ051-052-058>065-066-070>072-051700-
SOUTHEAST WISCONSIN

CITY           SKY/WX    TMP DP  RH WIND       PRES   REMARKS
MILWAUKEE      PTSUNNY   26  17  68 NW12      30.35S WCI  16
WAUKESHA       MOSUNNY   21  16  79 NW10      30.36S WCI  10
MILWAUKEE/TIMM SUNNY    N/A N/A N/A NW9       30.36S
RACINE         MOSUNNY   28  18  66 NW12      30.37S WCI  18
BURLINGTON     CLOUDY    23  17  76 N9        30.36S WCI  13
KENOSHA        PTSUNNY   26  19  74 NW10      30.35S WCI  16
FOND DU LAC    CLOUDY    23  15  71 CALM      30.35R
SHEBOYGAN        N/A     22  14  71 NW8       30.34F WCI  12
WEST BEND      SUNNY     23  16  74 NW7       30.35S WCI  15
JUNEAU         MOSUNNY   21  15  76 CALM      30.36S
$$

LSZ147-162-051700-
LAKE SUPERIOR

STATION/POSITION TIME  TEMP    WIND        PRES    WAVE
                       AIR SEA DIR/SP/G            HT/PER
                 (UTC) (F)     (DEG/KT/KT) (MB)    (FT/S)
DEVILS ISLAND    1600   19     220/  8/ 11 1027.4F
PORT WING        1440   10     150/  3/  5   N/A
SAXON HARBOR     1500   15                 1026.1F
$$

LMZ867-665-643>646-051700-
LAKE MICHIGAN

STATION/POSITION TIME  TEMP    WIND        PRES    WAVE
                       AIR SEA DIR/SP/G            HT/PER
                 (UTC) (F)     (DEG/KT/KT) (MB)    (FT/S)
CHAMBERS ISLAND  1500   24     300/  5/ 12 1026.4R
ALGOMA LAKESHORE 1540          320/ 10/ 13   N/A
KEWAUNEE LAKESHO 1500   21     300/  5/ 11 1026.2R
SHEBOYGAN LAKESH 1600   23     310/ 12/ 15 1028.8F
PORT WASHINGTON  1500   25     310/  7/ 13 1028.8R
MILWAUKEE LAKESH 1610   26     300/ 11/ 13   N/A
KENOSHA   LAKESH 1600   26     320/ 10/ 13 1027.8S
$$

TC  - TEMPERATURE IN CELSIUS
VSB - VISIBILITY IN STATUTE MILES
WCI - WIND CHILL INDEX
HX  - HEAT INDEX




USA.gov is the U.S. government's official web portal to all federal, state and local government web resources and services.